COSMOS 2477 (745)

Last updated on Wed Nov 20 2024 00:03:10 GMT+0000 (Coordinated Universal Time)

1 37868U 11064B 24324.39440095 .00000012 00000+0 00000+0 0 9994 2 37868 64.9662 92.3996 0019973 231.8444 150.8034 2.13102926101515
UTC large
Height (km)
Speed (km/s)
/
Latitude / Longitude
Inclination (degrees)
Orbital Period (minutes)
Azimuth
Elevation
Range (km)
Doppler Factor

Next 0 passes for location: London (51.5072 / 0.1276)

Sorry there are no passes over London.